NOZ1870 ENGM-LIRF

Flight info

Callsign NOZ1870
Flight time N/A
Altitude 37000
Route VIPPA DCT ESOSI DCT SONAL DCT HDO DCT OKL DCT BUDEX/N0437F380 DCT BAXON/N0440F370 DCT GOTMO DCT RITEB
Aircraft B738/M-SADE3GHIJ1LRWXY/LB1

Departure

Time N/A
Airport Oslo-Gardermoen International Airport (ENGM)

Arrival

Time 2026-05-01 08:00
Airport Rome–Fiumicino Leonardo da Vinci International Airport (LIRF)
Time Latitude Longitude Altitude Speed Heading
2026-05-01 07:23 44.31197 13.41533 37341 ft 481 kts 200°
2026-05-01 07:24 44.21696 13.36967 37343 ft 481 kts 199°
2026-05-01 07:24 44.15356 13.33998 37348 ft 481 kts 200°
2026-05-01 07:25 44.09036 13.31061 37343 ft 480 kts 200°
2026-05-01 07:25 44.02709 13.28127 37343 ft 480 kts 200°
2026-05-01 07:26 43.96425 13.25216 37340 ft 480 kts 200°
2026-05-01 07:26 43.90061 13.22274 37324 ft 480 kts 200°
2026-05-01 07:26 43.86877 13.20804 36864 ft 485 kts 200°
2026-05-01 07:27 43.83683 13.19331 36374 ft 482 kts 200°
2026-05-01 07:27 43.80535 13.17882 35937 ft 479 kts 200°
2026-05-01 07:27 43.77377 13.16430 35532 ft 475 kts 200°
2026-05-01 07:27 43.74244 13.14992 35121 ft 472 kts 200°
2026-05-01 07:28 43.71139 13.13567 34710 ft 469 kts 199°
2026-05-01 07:28 43.68045 13.12148 34257 ft 467 kts 199°
2026-05-01 07:28 43.64966 13.10738 33817 ft 464 kts 199°
2026-05-01 07:28 43.61910 13.09340 33383 ft 460 kts 199°
2026-05-01 07:29 43.58914 13.07971 32968 ft 457 kts 199°
2026-05-01 07:29 43.55910 13.06599 32561 ft 454 kts 199°
2026-05-01 07:29 43.52942 13.05246 32153 ft 451 kts 199°
2026-05-01 07:29 43.49979 13.03896 31759 ft 448 kts 199°
2026-05-01 07:30 43.47017 13.02548 31367 ft 445 kts 199°
2026-05-01 07:30 43.44092 13.01218 30990 ft 442 kts 199°
2026-05-01 07:30 43.41255 12.99930 30609 ft 439 kts 199°
2026-05-01 07:30 43.38419 12.98643 30188 ft 437 kts 199°
2026-05-01 07:31 43.35533 12.97335 29735 ft 433 kts 199°
2026-05-01 07:31 43.27078 12.93509 28515 ft 422 kts 200°
2026-05-01 07:32 43.21668 12.90599 27727 ft 410 kts 213°
2026-05-01 07:32 43.19324 12.88403 27304 ft 405 kts 223°
2026-05-01 07:33 43.15433 12.82996 26512 ft 395 kts 232°
2026-05-01 07:33 43.13580 12.80218 26127 ft 393 kts 232°
2026-05-01 07:33 43.09922 12.74759 25337 ft 388 kts 233°
2026-05-01 07:34 43.08093 12.72051 24982 ft 386 kts 232°
2026-05-01 07:34 43.04463 12.66704 24269 ft 382 kts 232°
2026-05-01 07:34 43.02654 12.64050 23905 ft 379 kts 232°
2026-05-01 07:35 43.00856 12.61414 23492 ft 377 kts 232°
2026-05-01 07:35 42.99071 12.58800 23090 ft 375 kts 232°
2026-05-01 07:35 42.97319 12.56238 22718 ft 373 kts 232°
2026-05-01 07:35 42.95556 12.53662 22360 ft 370 kts 232°
2026-05-01 07:36 42.93801 12.51101 22003 ft 367 kts 232°
2026-05-01 07:36 42.92065 12.48569 21661 ft 364 kts 232°
2026-05-01 07:36 42.90342 12.46058 21301 ft 362 kts 232°
2026-05-01 07:36 42.88625 12.43555 20954 ft 359 kts 232°
2026-05-01 07:37 42.85217 12.38599 20239 ft 355 kts 232°
2026-05-01 07:37 42.83553 12.36181 19904 ft 353 kts 232°
2026-05-01 07:37 42.81879 12.33751 19570 ft 351 kts 232°
2026-05-01 07:38 42.80205 12.31322 19238 ft 350 kts 232°
2026-05-01 07:38 42.78535 12.28900 18898 ft 350 kts 232°
2026-05-01 07:38 42.75206 12.24081 18183 ft 347 kts 232°
2026-05-01 07:39 42.73555 12.21696 17776 ft 347 kts 232°
2026-05-01 07:39 42.71898 12.19304 17318 ft 348 kts 231°
2026-05-01 07:39 42.67571 12.16429 16579 ft 355 kts 182°
2026-05-01 07:40 42.65152 12.16450 16301 ft 350 kts 177°
2026-05-01 07:40 42.62725 12.16595 15848 ft 348 kts 176°
2026-05-01 07:40 42.60315 12.16764 15369 ft 346 kts 176°
2026-05-01 07:40 42.57914 12.16928 14944 ft 344 kts 176°
2026-05-01 07:41 42.55526 12.17080 14454 ft 342 kts 177°
2026-05-01 07:41 42.53150 12.17220 13989 ft 340 kts 177°
2026-05-01 07:41 42.48509 12.17476 13128 ft 332 kts 177°
2026-05-01 07:42 42.46225 12.17598 13058 ft 322 kts 177°
2026-05-01 07:42 42.43986 12.17715 13119 ft 325 kts 177°
2026-05-01 07:42 42.41690 12.17836 13158 ft 333 kts 177°
2026-05-01 07:42 42.39348 12.17959 13163 ft 337 kts 177°
2026-05-01 07:43 42.37007 12.18153 13155 ft 336 kts 168°
2026-05-01 07:43 42.34875 12.19227 13199 ft 328 kts 146°
2026-05-01 07:43 42.31048 12.22549 13199 ft 326 kts 143°
2026-05-01 07:44 42.27225 12.25832 13195 ft 325 kts 146°
2026-05-01 07:44 42.22923 12.27698 13191 ft 330 kts 166°
2026-05-01 07:45 42.20650 12.28334 12925 ft 334 kts 167°
2026-05-01 07:45 42.18362 12.28949 12662 ft 335 kts 167°
2026-05-01 07:45 42.16089 12.29557 12389 ft 331 kts 167°
2026-05-01 07:45 42.13847 12.30161 12117 ft 327 kts 167°
2026-05-01 07:46 42.11628 12.30763 11856 ft 323 kts 167°
2026-05-01 07:46 42.09429 12.31362 11600 ft 319 kts 167°
2026-05-01 07:46 42.05148 12.32532 11091 ft 312 kts 167°
2026-05-01 07:47 42.03022 12.33113 10845 ft 309 kts 167°
2026-05-01 07:47 42.00918 12.33687 10597 ft 306 kts 167°
2026-05-01 07:47 41.98844 12.34254 10352 ft 303 kts 167°
2026-05-01 07:47 41.96823 12.34980 10147 ft 297 kts 159°
2026-05-01 07:48 41.92980 12.36756 9617 ft 293 kts 166°
2026-05-01 07:48 41.90992 12.37325 9357 ft 290 kts 167°
2026-05-01 07:48 41.89012 12.37892 9093 ft 288 kts 166°
2026-05-01 07:49 41.87062 12.38484 8830 ft 285 kts 165°
2026-05-01 07:49 41.83262 12.39720 8331 ft 281 kts 164°
2026-05-01 07:49 41.81375 12.40357 8080 ft 279 kts 164°
2026-05-01 07:50 41.79493 12.41001 7833 ft 277 kts 164°
2026-05-01 07:50 41.75796 12.42276 7332 ft 273 kts 164°
2026-05-01 07:50 41.73962 12.42911 7081 ft 271 kts 164°
2026-05-01 07:51 41.72144 12.43540 6837 ft 269 kts 165°
2026-05-01 07:51 41.70337 12.44165 6597 ft 267 kts 165°
2026-05-01 07:51 41.68558 12.44780 6344 ft 266 kts 165°
2026-05-01 07:52 41.64935 12.45341 5806 ft 257 kts 177°
2026-05-01 07:52 41.63162 12.45478 5542 ft 252 kts 176°
2026-05-01 07:52 41.61449 12.45633 5466 ft 238 kts 176°
2026-05-01 07:53 41.58306 12.45883 5416 ft 220 kts 186°
2026-05-01 07:53 41.56886 12.45245 5415 ft 216 kts 217°
2026-05-01 07:53 41.55842 12.43803 5386 ft 219 kts 242°
2026-05-01 07:53 41.55359 12.41860 5129 ft 221 kts 269°
2026-05-01 07:54 41.56434 12.38309 4668 ft 206 kts 321°
2026-05-01 07:55 41.60162 12.36387 4028 ft 183 kts 342°
2026-05-01 07:55 41.62544 12.35390 3618 ft 177 kts 342°
2026-05-01 07:56 41.65978 12.33951 3186 ft 175 kts 343°
2026-05-01 07:56 41.68393 12.32939 2717 ft 182 kts 345°
2026-05-01 07:57 41.69582 12.32440 2451 ft 180 kts 345°
2026-05-01 07:57 41.71891 12.31471 1972 ft 166 kts 347°
2026-05-01 07:58 41.73940 12.30611 1570 ft 138 kts 346°
2026-05-01 07:58 41.75797 12.29837 1150 ft 138 kts 349°
2026-05-01 07:59 41.77604 12.29064 789 ft 132 kts 348°
2026-05-01 07:59 41.79339 12.28356 467 ft 132 kts 347°
2026-05-01 08:00 41.82443 12.27051 12 ft 34 kts 336°
2026-05-01 08:01 41.82741 12.26702 15 ft 9 kts 288°
2026-05-01 08:01 41.82712 12.26633 14 ft 9 kts 206°
2026-05-01 08:01 41.82642 12.26647 14 ft 12 kts 163°
2026-05-01 08:02 41.82432 12.26735 14 ft 22 kts 162°
2026-05-01 08:02 41.82325 12.26780 14 ft 25 kts 162°
2026-05-01 08:03 41.81983 12.26924 14 ft 19 kts 162°
2026-05-01 08:03 41.81901 12.26958 15 ft 19 kts 162°
2026-05-01 08:03 41.81606 12.27081 14 ft 25 kts 162°
2026-05-01 08:04 41.81290 12.27214 14 ft 23 kts 162°
2026-05-01 08:04 41.80997 12.27336 14 ft 21 kts 162°
2026-05-01 08:05 41.80713 12.27302 14 ft 20 kts 202°
2026-05-01 08:05 41.80638 12.27154 15 ft 19 kts 250°
2026-05-01 08:05 41.80587 12.26972 14 ft 23 kts 249°
2026-05-01 08:06 41.80467 12.26534 15 ft 24 kts 250°
2026-05-01 08:06 41.80411 12.26374 14 ft 12 kts 210°
2026-05-01 08:07 41.80227 12.26410 14 ft 13 kts 191°
2026-05-01 08:07 41.80040 12.26297 14 ft 21 kts 205°
2026-05-01 08:08 41.79899 12.26210 15 ft 21 kts 205°
2026-05-01 08:08 41.79778 12.26033 14 ft 14 kts 296°
2026-05-01 08:09 41.79828 12.25824 14 ft 10 kts 223°
2026-05-01 08:09 41.79773 12.25789 15 ft 3 kts 184°
2026-05-01 08:09 41.79758 12.25803 14 ft 2 kts 131°
2026-05-01 08:10 41.79741 12.25846 14 ft 2 kts 115°
2026-05-01 08:10 41.79739 12.25850 14 ft 0 kts 115°